Regional Weather Roundup
Issued by NWS

Home | Current Version | Previous Version | Text Only | Print | Product List | Glossary Off
Versions: 1 2 3 4 5 6 7 8 9 10 11 12 13 14 15 16 17 18 19 20 21 22 23 24 25 26 27 28 29 30 31 32 33 34 35 36 37 38 39 40 41 42 43 44 45 46 47 48 49 50

296
ASUS44 KLIX 210910
RWRLA
LOUISIANA WEATHER ROUNDUP
NATIONAL WEATHER SERVICE NEW ORLEANS LA
300 AM CST SUN DEC 21 2014

NOTE: "FAIR" INDICATES FEW OR NO CLOUDS BELOW 12,000 FEET WITH NO
      SIGNIFICANT WEATHER AND/OR OBSTRUCTIONS TO VISIBILITY.
      SKY/WX - SKY CONDITION AND SIGNIFICANT WEATHER.
      TMP - AIR TEMPERATURE.    DP   - DEWPOINT TEMPERATURE.
      RH  - RELATIVE HUMIDITY.  PRES - PRESSURE.
      HX  - HEAT INDEX.         WCI  - WIND CHILL INDEX.

*  THESE STATIONS ARE NOT NWS OR FAA STATIONS AND ARE NOT UNDER
   NWS QUALITY CONTROL.

LAZ040-048-061>063-065-066-069-211000-
SOUTHEAST LOUISIANA

CITY           SKY/WX    TMP DP  RH WIND       PRES   REMARKS
N.O. AUDUBON     N/A     53  50  89 MISG        N/A
N.O. INTL ARPT CLOUDY    53  48  83 E7        30.13S
N.O. LAKEFRONT CLOUDY    54  48  80 NE12      30.13F
N.O. DOWNTOWN* CLOUDY    52  45  76 NE6       30.13S
SLIDELL        CLOUDY    52  47  83 N5        30.13S
BATON ROUGE    CLOUDY    47  44  90 NE3       30.13F
BOOTHVILLE     CLOUDY    54  52  93 NE9       30.10F
BELLE CHASSE   CLOUDY    53  49  86 NE6       30.13R
BOGALUSA*        N/A     50  45  80 NE6       30.16S
GALLIANO*      CLOUDY    55  51  89 MISG      30.12S
NEW ROADS*     CLOUDY    44  44  99 N3        30.15S
GONZALES*      CLOUDY    50  50 100 CALM      30.13S
HAMMOND*       NOT AVBL
HOUMA*         CLOUDY    51  49  92 NE6       30.12S
PORT FOURCHON* CLOUDY    55  52  88 NE13G20   30.13S

$$

LAZ041-044-053-054-211000-
SOUTHWEST LOUISIANA

CITY           SKY/WX    TMP DP  RH WIND       PRES   REMARKS
LAKE CHARLES   CLEAR     43  41  93 N5        30.14F
LAFAYETTE      CLOUDY    47  46  97 NE3       30.14F FOG
PATTERSON      CLOUDY    52  46  82 NE7       30.13F
SALT POINT       N/A     54  49  83 CALM      30.12S
NEW IBERIA     CLOUDY    49  47  93 NE8       30.14F
CHENAULT AIRPK CLEAR     42  41  98 N3        30.15S

$$

LAZ027-028-211000-
CENTRAL LOUISIANA

CITY           SKY/WX    TMP DP  RH WIND       PRES   REMARKS
FORT POLK      CLEAR     41  40  96 NE5       30.14F
ALEXANDRIA INT CLEAR     39  38  96 CALM      30.15S FOG
ALEXANDRIA     PTCLDY    36  35  96 CALM      30.16S

$$

LAZ001-002-211000-
NORTHWEST LOUISIANA

CITY           SKY/WX    TMP DP  RH WIND       PRES   REMARKS
SHREVEPORT     FOG       36  35  96 CALM      30.16F VSB 1/2
BARKSDALE AFB  NOT AVBL
DTN SHREVEPORT FOG       35  33  92 CALM      30.17F VSB 1

$$

LAZ014-016-211000-
NORTHEAST LOUISIANA

CITY           SKY/WX    TMP DP  RH WIND       PRES   REMARKS
MONROE         CLEAR     38  36  92 NE6       30.19F WCI  33
TALLULAH       CLEAR     39  36  89 CALM      30.18F

$$




USA.gov is the U.S. government's official web portal to all federal, state and local government web resources and services.